Regional Weather Roundup
Issued by NWS

Home | Current Version | Previous Version | Graphics & Text | Print | Product List | Glossary On
Versions: 1 2 3 4 5 6 7 8 9 10 11 12 13 14 15 16 17 18 19 20 21 22 23 24 25 26 27 28 29 30 31 32 33 34 35 36 37 38 39 40 41 42 43 44 45 46 47 48 49 50
000
ASUS43 KDMX 242207
RWRIA

WEATHER ROUNDUP FOR IOWA
NATIONAL WEATHER SERVICE DES MOINES IA
500 PM CDT FRI APR 24 2015

NOTE: "FAIR" INDICATES FEW OR NO CLOUDS BELOW 12,000 FEET WITH NO
SIGNIFICANT WEATHER AND/OR OBSTRUCTIONS TO VISIBILITY.

* - THESE STATIONS ARE NOT NWS STATIONS...THUS NOT UNDER NWS
QUALITY CONTROL.  THEY ALSO DO NOT REPORT WEATHER SUCH
AS PRECIPITATION OR FOG.

IAZ001>003-012>014-020>022-031>034-043>046-242300-
   NORTHWEST IOWA

CITY           SKY/WX    TMP DP  RH WIND       PRES   REMARKS
CARROLL *      SUNNY     64  52  63 E20G26    29.63F
CHEROKEE *     SUNNY     66  52  59 E14G24    29.61F
DENISON *      MOSUNNY   68  54  60 S10G16    29.59F
LE MARS *      SUNNY     73  54  49 SE12G20   29.57S
ORANGE CITY *  SUNNY     72  52  49 SE7G16    29.57F
SHELDON *      SUNNY     68  52  56 SE21G29   29.58F
SIOUX CITY     SUNNY     75  51  43 SE16      29.56S
SPENCER        MOSUNNY   57  48  72 SE21      29.66S
STORM LAKE *   PTSUNNY   63  52  67 SE20      29.64S
$$

IAZ055>058-069>071-079>083-090>094-242300-
   SOUTHWEST IOWA

CITY           SKY/WX    TMP DP  RH WIND       PRES   REMARKS
ATLANTIC *     PTSUNNY   64  52  63 S13       29.64S
AUDUBON *      MOSUNNY   64  52  63 SE10      29.64S
CLARINDA *     CLOUDY    59  52  77 S12       29.66F
COUNCIL BLFS * MOSUNNY   64  54  68 SE14      29.61F
CRESTON *      CLOUDY    59  52  77 S15       29.67S
HARLAN  *      MOSUNNY   66  57  72 S13       29.65S
LAMONI         CLOUDY    60  49  66 S9        29.68F
RED OAK *      CLOUDY    63  52  67 S13       29.64F
SHENANDOAH *   CLOUDY    61  52  72 S14       29.64F
$$

IAZ047>049-059>061-072>074-084-242300-
   CENTRAL IOWA

CITY           SKY/WX    TMP DP  RH WIND       PRES   REMARKS
AMES           CLOUDY    53  46  77 E14       29.72S
ANKENY *       CLOUDY    54  50  87 E8        29.71F
CHARITON *     CLOUDY    59  48  67 SE8       29.70F
DES MOINES     CLOUDY    56  49  77 E9        29.70F
GRINNELL*      DRIZZLE   48  45  87 E15G22    29.76F
KNOXVILLE *    CLOUDY    54  48  82 E10       29.71F
MARSHALLTOWN   CLOUDY    48  44  86 E22       29.75F
PELLA *        CLOUDY    50  50 100 E7        29.74F
PERRY *        CLOUDY    61  50  67 E16       29.67F
$$

IAZ004>006-015-016-023>025-035-036-242300-
   NORTH CENTRAL IOWA

CITY           SKY/WX    TMP DP  RH WIND       PRES   REMARKS
ALGONA *       CLOUDY    50  45  81 SE21G30   29.70F
CLARION *      CLOUDY    48  46  93 SE23G36   29.72F
ESTHERVILLE    CLOUDY    51  46  83 SE23      29.67F
FORT DODGE *   CLOUDY    52  45  76 E20G28    29.71S
MASON CITY     CLOUDY    45  41  86 SE23G32   29.75F
FOREST CITY *  PTSUNNY   45  43  93 SE22      29.74S
IOWA FALLS *   CLOUDY    48  45  87 E23G29    29.75F
$$

IAZ007>011-017>019-026>030-037>042-050>054-066-242300-
   NORTHEAST IOWA

CITY           SKY/WX    TMP DP  RH WIND       PRES   REMARKS
CEDAR RAPIDS   LGT RAIN  45  42  89 E20       29.79F
CHARLES CITY * CLOUDY    45  43  93 SE22G31   29.80F
CLINTON *      CLOUDY    46  41  81 E13       29.91R
DECORAH *      CLOUDY    43  41  93 SE9G15    29.86R
DUBUQUE        LGT RAIN  43  38  82 E13       29.87R
MONTICELLO *   CLOUDY    45  43  93 E16       29.83S
OELWEIN *      CLOUDY    45  41  87 E16G24    29.83F
WATERLOO       CLOUDY    45  41  86 SE20      29.81F
$$

IAZ064-065-067-068-078-242300-
   EAST CENTRAL IOWA

CITY           SKY/WX    TMP DP  RH WIND       PRES   REMARKS
DAVENPORT      RAIN      49  40  71 E9        29.87R
IOWA CITY      TSTM      48  44  86 E10       29.80F FOG
MT. PLEASANT * CLOUDY    63  36  36 SE6       29.76R
MUSCATINE *    CLOUDY    54  46  76 E12       29.80F
QUAD CITIES    LGT RAIN  51  43  74 N9        29.87R
$$

IAZ062-063-075>077-085>089-095>099-242300-
   SOUTHEAST IOWA

CITY           SKY/WX    TMP DP  RH WIND       PRES   REMARKS
BURLINGTON     CLOUDY    63  36  36 SE14G23   29.75F
FAIRFIELD *    CLOUDY    57  48  72 NE9       29.76R
FORT MADISON * CLOUDY    64  37  36 S14       29.76F
KEOKUK *       CLOUDY    66  39  37 SE14      29.74F
OSKALOOSA *    LGT RAIN  54  48  82 E13       29.75F
CENTERVILLE *  PTSUNNY   63  50  63 S6        29.71F
OTTUMWA        TSTM      55  47  74 NE12      29.73F
WASHINGTON *   LGT RAIN  52  52 100 NE8       29.79R
$$

ABBREVIATIONS USED IN REMARKS
   TC - TEMPERATURES IN CELSIUS
  WCI - WIND CHILL INDEX
   HX - HEAT INDEX
  VSB - VISIBILITY
$$




USA.gov is the U.S. government's official web portal to all federal, state and local government web resources and services.